Terminal Aerodrome Forecast
Issued by NWS

Home | Current Version | Previous Version | Text Only | Print | Product List | Glossary On
Versions: 1 2 3 4 5 6 7 8 9 10 11 12 13 14 15 16 17 18 19 20 21 22 23 24 25 26 27 28 29 30 31 32
000
FTUS46 KLOX 061131
TAFLAX
TAF
KLAX 061131Z 0612/0718 06005KT P6SM BKN022
     FM061700 VRB03KT P6SM BKN035
     FM062200 25008KT P6SM SCT040
     FM070200 VRB03KT P6SM BKN250
     FM071100 VRB03KT P6SM BKN025
     FM071600 25008KT P6SM SCT030=

USA.gov is the U.S. government's official web portal to all federal, state and local government web resources and services.